GW5633 Weather Reports


Display with metric or nautical units.
time (UTC)temp
F
wind
direction
speed
MPH
gust
MPH
rain 1hr
in
rain 24hr
in
rain mn
in
humidity
%
barometer
mb
20260506221847 61 225 0.0 1.0 0.00 0.29 0.29 95 1007.3
20260506221344 61 154 0.0 0.0 0.00 0.29 0.29 95 1007.2
20260506220842 61 175 0.0 1.0 0.00 0.29 0.29 95 1007.2
20260506220337 61 265 0.0 1.0 0.00 0.29 0.29 95 1007.4
20260506215834 61 161 0.0 0.0 0.00 0.29 0.29 95 1007.2
20260506215330 61 234 0.0 0.0 0.00 0.29 0.29 95 1007.0
20260506214826 60 214 0.0 0.0 0.00 0.29 0.29 95 1007.2
20260506214322 60 222 3.0 5.0 0.00 0.29 0.29 95 1007.0
20260506213821 60 231 0.0 0.0 0.00 0.29 0.29 95 1007.1
20260506213318 60 255 1.0 2.0 0.00 0.29 0.29 95 1006.9
20260506212815 60 215 0.0 0.0 0.00 0.29 0.29 95 1007.0
20260506212311 60 206 1.0 5.0 0.00 0.29 0.29 95 1006.9
20260506211806 60 187 0.0 0.0 0.00 0.29 0.29 95 1007.0
20260506211302 60 177 0.0 2.0 0.00 0.29 0.29 95 1007.0
20260506210800 60 212 1.0 2.0 0.00 0.29 0.29 95 1007.0
20260506210256 60 236 2.0 3.0 0.00 0.29 0.29 95 1006.9
20260506205754 60 199 0.0 0.0 0.00 0.29 0.29 96 1006.9
20260506205249 60 268 0.0 1.0 0.00 0.29 0.29 96 1006.8
20260506204746 60 214 0.0 0.0 0.00 0.29 0.29 96 1006.7
20260506204244 60 233 1.0 1.0 0.00 0.29 0.29 96 1006.7
20260506203742 60 173 0.0 0.0 0.00 0.29 0.29 96 1006.7
20260506203238 60 200 3.0 6.0 0.00 0.29 0.29 96 1006.7
20260506202736 60 250 1.0 3.0 0.00 0.29 0.29 96 1006.7
20260506202232 60 170 0.0 0.0 0.00 0.29 0.29 96 1006.7
20260506201729 60 237 4.0 7.0 0.00 0.29 0.29 96 1006.7
20260506201226 60 177 0.0 0.0 0.00 0.29 0.29 96 1006.5
20260506200723 60 239 1.0 3.0 0.00 0.29 0.29 96 1006.7
20260506200219 59 185 0.0 0.0 0.00 0.29 0.29 96 1006.8
20260506195716 59 196 0.0 0.0 0.00 0.29 0.29 96 1006.6
20260506195213 59 256 1.0 3.0 0.00 0.29 0.29 96 1006.9
20260506194710 59 255 5.0 8.0 0.00 0.29 0.29 96 1007.1
20260506194206 59 194 3.0 6.0 0.00 0.29 0.29 96 1007.1
20260506193704 59 207 0.0 0.0 0.00 0.29 0.29 96 1007.1
20260506193201 59 251 2.0 3.0 0.00 0.29 0.29 96 1007.1
20260506192657 59 226 1.0 3.0 0.07 0.29 0.29 96 1007.2
20260506192154 59 199 0.0 1.0 0.07 0.29 0.29 96 1007.3
20260506191651 59 202 0.0 0.0 0.00 0.28 0.28 96 1007.5
20260506191147 59 210 0.0 1.0 0.05 0.28 0.28 96 1007.8
20260506190644 59 192 2.0 3.0 0.05 0.28 0.28 96 1007.5
20260506190141 59 209 0.0 0.0 0.05 0.28 0.28 95 1007.7
20260506185638 59 213 0.0 1.0 0.07 0.27 0.27 95 1007.6
20260506185134 59 256 1.0 2.0 0.00 0.26 0.26 95 1007.6
20260506184632 59 190 3.0 3.0 0.05 0.26 0.26 95 1007.5
20260506184129 59 187 6.0 9.0 0.12 0.26 0.26 95 1007.7
20260506183625 59 231 0.0 0.0 0.14 0.25 0.25 95 1007.6
20260506183121 59 208 5.0 10.0 0.19 0.24 0.24 94 1007.6
20260506182619 59 169 0.0 0.0 0.12 0.23 0.23 94 1007.8
20260506182116 59 216 0.0 0.0 0.05 0.21 0.21 94 1007.6
20260506181614 59 228 0.0 2.0 0.12 0.21 0.21 94 1007.5
20260506181111 60 189 0.0 0.0 0.12 0.20 0.20 93 1007.8
20260506180608 60 180 0.0 0.0 0.05 0.19 0.19 93 1007.9
20260506180104 60 230 0.0 0.0 0.05 0.19 0.19 93 1007.8
20260506175600 60 213 1.0 2.0 0.07 0.18 0.18 92 1007.8
20260506175056 60 208 1.0 2.0 0.07 0.18 0.18 92 1007.9
20260506174555 60 206 3.0 5.0 0.00 0.17 0.17 92 1007.8
20260506174051 60 192 1.0 2.0 0.00 0.17 0.17 91 1008.0
20260506173549 60 200 3.0 3.0 0.00 0.17 0.17 91 1008.2
20260506173046 60 214 3.0 5.0 0.00 0.17 0.17 91 1007.8
20260506172543 60 206 7.0 9.0 0.00 0.17 0.17 91 1008.0
20260506172039 60 167 5.0 10.0 0.00 0.17 0.17 91 1007.8
20260506171537 60 243 4.0 8.0 0.05 0.17 0.17 91 1008.1
20260506171034 60 189 8.0 10.0 0.05 0.17 0.17 91 1007.9
20260506170532 60 192 6.0 8.0 0.00 0.16 0.16 92 1007.8
20260506170029 60 211 5.0 7.0 0.00 0.16 0.16 91 1008.0
20260506165527 60 205 3.0 9.0 0.07 0.16 0.16 91 1008.0
20260506165023 60 189 9.0 13.0 0.07 0.16 0.16 92 1008.0
20260506164520 60 245 4.0 5.0 0.07 0.16 0.16 92 1007.8
20260506164012 60 184 3.0 6.0 0.05 0.15 0.15 92 1007.9
20260506163508 60 175 1.0 2.0 0.05 0.15 0.15 91 1007.8
20260506163004 60 204 2.0 2.0 0.07 0.14 0.14 91 1007.8
20260506162500 60 174 1.0 2.0 0.07 0.14 0.14 92 1008.1
20260506161957 60 203 3.0 5.0 0.12 0.13 0.13 91 1008.5
20260506161455 60 222 3.0 5.0 0.19 0.13 0.13 91 1008.8
20260506160952 60 213 3.0 7.0 0.14 0.12 0.12 91 1009.0
20260506160449 60 206 1.0 2.0 0.05 0.10 0.10 90 1009.2
20260506155946 60 197 3.0 6.0 0.12 0.10 0.10 90 1009.2
20260506155444 60 199 3.0 9.0 0.12 0.09 0.09 89 1009.2
20260506153611 61 193 2.0 5.0 0.05 0.06 0.06 88 1009.3
20260506153108 62 213 0.0 2.0 0.00 0.05 0.05 88 1009.2
20260506152605 62 233 0.0 0.0 0.07 0.05 0.05 88 1008.8
20260506152103 62 212 0.0 0.0 0.07 0.05 0.05 87 1009.2
20260506151601 62 201 4.0 7.0 0.05 0.04 0.04 87 1009.1
20260506151058 62 191 0.0 1.0 0.12 0.04 0.04 86 1009.2
20260506150554 62 214 0.0 1.0 0.07 0.03 0.03 86 1009.1
20260506150051 62 219 1.0 5.0 0.05 0.02 0.02 84 1009.3
20260506145548 62 218 3.0 5.0 0.12 0.02 0.02 82 1009.3
20260506145046 63 213 3.0 5.0 0.07 0.01 0.01 80 1009.5
20260506144542 64 248 2.0 3.0 0.00 0.00 0.00 78 1009.5
20260506144039 64 262 1.0 3.0 0.00 0.00 0.00 75 1009.3
20260506143537 64 200 4.0 7.0 0.00 0.00 0.00 74 1009.2
20260506143035 64 206 0.0 0.0 0.00 0.00 0.00 75 1009.2
20260506142533 64 204 3.0 3.0 0.00 0.00 0.00 76 1009.1
20260506142031 64 204 2.0 3.0 0.00 0.00 0.00 75 1009.3
20260506141528 64 212 3.0 5.0 0.00 0.00 0.00 76 1009.4
20260506141026 64 184 1.0 3.0 0.00 0.00 0.00 75 1009.2
20260506140523 64 261 1.0 2.0 0.00 0.00 0.00 75 1009.0
20260506140021 64 209 1.0 5.0 0.00 0.00 0.00 75 1009.0
20260506135517 64 247 1.0 3.0 0.00 0.00 0.00 75 1009.2
20260506135013 64 289 1.0 2.0 0.00 0.00 0.00 75 1009.1
20260506134509 64 181 4.0 9.0 0.00 0.00 0.00 74 1009.1
20260506134000 64 173 2.0 3.0 0.00 0.00 0.00 74 1009.3
20260506133458 64 197 2.0 5.0 0.00 0.00 0.00 74 1009.3
20260506132954 64 213 7.0 9.0 0.00 0.00 0.00 74 1009.4
20260506132451 64 186 5.0 9.0 0.00 0.00 0.00 74 1009.4
20260506131949 64 184 9.0 13.0 0.00 0.00 0.00 74 1009.5
20260506131445 64 184 3.0 8.0 0.00 0.00 0.00 74 1009.5
20260506130942 64 184 3.0 6.0 0.00 0.00 0.00 74 1009.5
20260506130439 64 196 3.0 6.0 0.00 0.00 0.00 74 1009.3
20260506125937 64 204 0.0 0.0 0.00 0.00 0.00 74 1009.2
20260506125435 64 191 0.0 1.0 0.00 0.00 0.00 75 1009.3
20260506124933 64 213 4.0 8.0 0.00 0.00 0.00 74 1009.1
20260506124430 64 201 0.0 0.0 0.00 0.00 0.00 75 1009.2
20260506123928 64 206 0.0 1.0 0.00 0.00 0.00 74 1009.1
20260506123426 64 212 1.0 2.0 0.00 0.00 0.00 74 1009.0
20260506122923 64 198 4.0 6.0 0.00 0.00 0.00 74 1009.0
20260506122419 64 218 6.0 9.0 0.00 0.00 0.00 74 1009.2
20260506121918 64 207 2.0 3.0 0.00 0.00 0.00 74 1009.1
20260506121414 64 205 4.0 7.0 0.00 0.00 0.00 74 1009.3
20260506120911 64 230 0.0 0.0 0.00 0.00 0.00 74 1009.3
20260506120409 64 180 2.0 2.0 0.00 0.00 0.00 74 1009.2
20260506115906 64 197 0.0 2.0 0.00 0.00 0.00 75 1009.2
20260506115404 64 246 4.0 6.0 0.00 0.00 0.00 75 1009.2
20260506114902 64 203 0.0 0.0 0.00 0.00 0.00 75 1009.2
20260506114359 64 189 4.0 6.0 0.00 0.00 0.00 75 1009.3
20260506113858 64 190 3.0 7.0 0.00 0.00 0.00 75 1009.5
20260506113355 64 197 2.0 3.0 0.00 0.00 0.00 75 1009.4
20260506112851 64 192 5.0 8.0 0.00 0.00 0.00 75 1009.4
20260506112349 64 233 3.0 3.0 0.00 0.00 0.00 75 1009.4
20260506111846 64 197 3.0 3.0 0.00 0.00 0.00 75 1009.3
20260506111344 64 203 1.0 2.0 0.00 0.00 0.00 75 1009.3
20260506110842 64 212 3.0 5.0 0.00 0.00 0.00 75 1009.3
20260506110338 64 206 0.0 0.0 0.00 0.00 0.00 76 1009.3
20260506105835 63 213 3.0 3.0 0.00 0.00 0.00 76 1009.2
20260506105332 63 165 1.0 1.0 0.00 0.00 0.00 76 1009.0
20260506104830 63 193 1.0 3.0 0.00 0.00 0.00 76 1009.0
20260506104327 63 222 3.0 6.0 0.00 0.00 0.00 76 1009.1
20260506103824 63 214 4.0 8.0 0.00 0.00 0.00 76 1009.0
20260506103322 63 211 2.0 7.0 0.00 0.00 0.00 76 1008.9
20260506102819 63 192 1.0 1.0 0.00 0.00 0.00 76 1009.1
20260506102317 63 189 1.0 2.0 0.00 0.00 0.00 76 1009.1
20260506101814 63 218 3.0 3.0 0.00 0.00 0.00 76 1009.0
20260506101310 63 180 4.0 6.0 0.00 0.00 0.00 76 1009.2
20260506100808 63 205 3.0 3.0 0.00 0.00 0.00 76 1008.9
20260506100306 63 162 1.0 1.0 0.00 0.00 0.00 76 1008.9
20260506095804 63 198 2.0 3.0 0.00 0.00 0.00 76 1008.9
20260506095301 63 204 1.0 2.0 0.00 0.00 0.00 76 1008.9
20260506094757 63 203 0.0 0.0 0.00 0.00 0.00 76 1009.0
20260506094256 64 194 0.0 1.0 0.00 0.00 0.00 76 1009.1
20260506093754 64 210 2.0 2.0 0.00 0.00 0.00 76 1008.9
20260506093251 64 207 2.0 3.0 0.00 0.00 0.00 76 1008.9
20260506092749 64 216 0.0 0.0 0.00 0.00 0.00 76 1008.8
20260506092246 64 195 0.0 0.0 0.00 0.00 0.00 76 1008.8
20260506091743 64 165 0.0 0.0 0.00 0.00 0.00 75 1009.0
20260506091241 64 201 5.0 7.0 0.00 0.00 0.00 75 1009.1
20260506090739 64 215 2.0 5.0 0.00 0.00 0.00 75 1009.0
20260506090235 64 214 3.0 6.0 0.00 0.00 0.00 76 1009.0
20260506085732 64 211 4.0 7.0 0.00 0.00 0.00 75 1009.1
20260506085228 64 202 3.0 5.0 0.00 0.00 0.00 75 1009.4
20260506084726 64 204 10.0 11.0 0.00 0.00 0.00 75 1009.2
20260506084221 64 226 1.0 2.0 0.00 0.00 0.00 75 1009.2
20260506083719 64 207 1.0 3.0 0.00 0.00 0.00 75 1009.1
20260506083216 64 210 0.0 1.0 0.00 0.00 0.00 74 1009.2
20260506082713 63 199 4.0 7.0 0.00 0.00 0.00 74 1009.6
20260506082209 64 178 0.0 0.0 0.00 0.00 0.00 73 1009.3
20260506081707 63 154 0.0 0.0 0.00 0.00 0.00 73 1009.3
20260506081204 64 185 0.0 0.0 0.00 0.00 0.00 72 1009.4
20260506080702 64 204 4.0 6.0 0.00 0.00 0.00 73 1009.3
20260506080158 64 190 1.0 1.0 0.00 0.00 0.00 71 1009.4
20260506073143 65 206 1.0 3.0 0.00 0.00 0.00 69 1009.4
20260506072638 65 214 1.0 3.0 0.00 0.00 0.00 68 1009.5
20260506072137 65 196 0.0 1.0 0.00 0.00 0.00 68 1009.4
20260506071634 65 216 1.0 2.0 0.00 0.00 0.00 67 1009.3
20260506071132 65 203 1.0 3.0 0.00 0.00 0.00 67 1009.5
20260506070628 65 211 3.0 7.0 0.00 0.00 0.00 67 1009.5
20260506070125 65 201 0.0 1.0 0.00 0.00 0.00 66 1009.2
20260506062103 66 264 0.0 2.0 0.00 0.00 0.00 63 1009.9
20260506061558 66 169 0.0 1.0 0.00 0.00 0.00 63 1009.8
20260506061056 66 200 0.0 1.0 0.00 0.00 0.00 63 1009.9
20260506060555 66 200 1.0 2.0 0.00 0.00 0.00 63 1009.9
20260506051024 66 201 0.0 0.0 0.00 0.00 0.00 61 1010.1
20260506050521 66 212 0.0 0.0 0.00 0.00 0.00 61 1010.3
20260506045012 66 195 0.0 0.0 0.00 0.00 0.00 61 1010.3
20260506044510 66 142 0.0 0.0 0.00 0.00 0.00 61 1010.4
20260506044006 67 217 1.0 2.0 0.00 0.00 0.00 61 1010.5
20260506043503 67 210 2.0 2.0 0.00 0.00 0.00 60 1010.4
20260506043002 67 219 0.0 0.0 0.00 0.00 0.00 60 1010.4
20260506042500 67 200 3.0 5.0 0.00 0.00 0.00 60 1010.4
20260506041957 67 224 0.0 1.0 0.00 0.00 0.00 60 1010.5
20260506041455 67 178 1.0 3.0 0.00 0.00 0.00 61 1010.4
20260506040952 67 191 0.0 1.0 0.00 0.00 0.00 60 1010.3
20260506040450 67 204 2.0 3.0 0.00 0.00 0.00 60 1010.3
20260506035946 67 211 0.0 1.0 0.00 0.00 0.00 60 1010.4
20260506035443 68 200 0.0 0.0 0.00 0.00 0.00 59 1010.3
20260506034939 68 223 1.0 2.0 0.00 0.00 0.00 59 1010.3
20260506034437 68 191 2.0 2.0 0.00 0.00 0.00 58 1010.6
20260506033934 68 205 1.0 2.0 0.00 0.00 0.00 58 1010.6
20260506033431 68 194 0.0 2.0 0.00 0.00 0.00 57 1010.3
20260506032928 68 197 3.0 3.0 0.00 0.00 0.00 57 1010.5
20260506032425 68 225 3.0 6.0 0.00 0.00 0.00 56 1010.1
20260506031921 69 202 3.0 3.0 0.00 0.00 0.00 55 1010.2
20260506031419 69 218 0.0 1.0 0.00 0.00 0.00 54 1010.3
20260506030916 69 193 2.0 2.0 0.00 0.00 0.00 53 1010.3
20260506030414 69 194 1.0 1.0 0.00 0.00 0.00 52 1010.2
20260506025911 70 202 2.0 2.0 0.00 0.00 0.00 51 1010.3
20260506025408 70 200 0.0 1.0 0.00 0.00 0.00 50 1010.3
20260506024904 70 185 1.0 6.0 0.00 0.00 0.00 50 1010.1
20260506024402 70 259 0.0 0.0 0.00 0.00 0.00 49 1010.2
20260506023857 71 209 7.0 9.0 0.00 0.00 0.00 48 1010.3
20260506023355 71 196 0.0 0.0 0.00 0.00 0.00 47 1010.1
20260506022851 71 196 3.0 5.0 0.00 0.00 0.00 47 1010.2
20260506022349 71 201 3.0 7.0 0.00 0.00 0.00 46 1010.1
20260506021847 71 225 0.0 1.0 0.00 0.00 0.00 46 1010.1
20260506021343 72 197 0.0 1.0 0.00 0.00 0.00 46 1010.1
20260506020840 72 170 1.0 3.0 0.00 0.00 0.00 45 1010.1
20260506020338 72 211 2.0 3.0 0.00 0.00 0.00 45 1009.9
20260506015835 72 215 6.0 8.0 0.00 0.00 0.00 45 1010.0
20260506015333 73 240 2.0 3.0 0.00 0.00 0.00 45 1009.8
20260506014829 73 167 2.0 3.0 0.00 0.00 0.00 45 1010.0
20260506014326 73 207 2.0 2.0 0.00 0.00 0.00 44 1009.7
20260506013823 73 197 3.0 6.0 0.00 0.00 0.00 45 1009.7
20260506013320 73 216 4.0 7.0 0.00 0.00 0.00 45 1009.5
20260506012817 73 237 3.0 7.0 0.00 0.00 0.00 45 1009.7
20260506012314 72 199 2.0 3.0 0.00 0.00 0.00 45 1009.7
20260506011811 73 207 3.0 3.0 0.00 0.00 0.00 45 1009.6
20260506011307 73 200 5.0 8.0 0.00 0.00 0.00 45 1009.6
20260506010805 73 156 4.0 8.0 0.00 0.00 0.00 45 1009.4
20260506010303 73 207 2.0 3.0 0.00 0.00 0.00 45 1009.3
20260506005759 73 188 2.0 3.0 0.00 0.00 0.00 44 1009.5
20260506005256 73 207 2.0 2.0 0.00 0.00 0.00 44 1009.2
20260506004752 73 221 4.0 7.0 0.00 0.00 0.00 43 1009.2
20260506004250 74 198 1.0 2.0 0.00 0.00 0.00 42 1009.1
20260506003745 74 171 4.0 7.0 0.00 0.00 0.00 41 1009.2
20260506003242 74 166 1.0 3.0 0.00 0.00 0.00 41 1009.1
20260506002739 74 209 0.0 1.0 0.00 0.00 0.00 40 1009.1
20260506002235 75 204 2.0 3.0 0.00 0.00 0.00 39 1009.1
20260506001730 75 207 5.0 6.0 0.00 0.00 0.00 39 1008.8
20260506001229 75 184 2.0 3.0 0.00 0.00 0.00 38 1009.1
20260506000725 75 207 2.0 3.0 0.00 0.00 0.00 38 1008.8
20260506000223 75 212 3.0 6.0 0.00 0.00 0.00 38 1008.9
20260505235720 75 212 4.0 9.0 0.00 0.00 0.00 38 1009.0
20260505235218 76 214 2.0 2.0 0.00 0.00 0.00 37 1008.8
20260505234714 76 212 6.0 11.0 0.00 0.00 0.00 37 1008.6
20260505234212 76 205 2.0 3.0 0.00 0.00 0.00 37 1008.8
20260505233708 76 206 4.0 6.0 0.00 0.00 0.00 37 1008.9
20260505233206 76 188 5.0 10.0 0.00 0.00 0.00 36 1008.7
20260505232703 77 152 0.0 1.0 0.00 0.00 0.00 36 1008.8
20260505232200 77 177 3.0 3.0 0.00 0.00 0.00 35 1008.6
20260505231657 77 180 7.0 11.0 0.00 0.00 0.00 36 1008.6
20260505231156 77 198 3.0 5.0 0.00 0.00 0.00 36 1008.4
20260505230654 77 183 0.0 2.0 0.00 0.00 0.00 36 1008.4
20260505230151 77 226 4.0 6.0 0.00 0.00 0.00 35 1008.2
20260505225647 77 198 2.0 5.0 0.00 0.00 0.00 35 1008.6
20260505225143 77 167 4.0 5.0 0.00 0.00 0.00 35 1008.2
20260505224639 77 236 6.0 10.0 0.00 0.00 0.00 34 1008.4
20260505224137 78 201 4.0 10.0 0.00 0.00 0.00 34 1008.2
20260505223634 77 223 3.0 6.0 0.00 0.00 0.00 34 1008.2
20260505223130 77 355 2.0 2.0 0.00 0.00 0.00 35 1007.7
20260505222626 77 216 5.0 7.0 0.00 0.00 0.00 34 1007.9
20260505222123 77 187 7.0 9.0 0.00 0.00 0.00 34 1008.1